Regional Weather Roundup
Issued by NWS State College, PA

Home | Current Version | Previous Version | Text Only | Print | Product List | Glossary On
Versions: 1 2 3 4 5 6 7 8 9 10 11 12 13 14 15 16 17 18 19 20 21 22 23 24 25 26 27 28 29 30 31 32 33 34 35 36 37 38 39 40 41 42 43 44 45 46 47 48 49 50
000
ASUS41 KCTP 230610
RWRCTP
REGIONAL WEATHER ROUNDUP
NATIONAL WEATHER SERVICE STATE COLLEGE PA
100 AM EST TUE JAN 23 2018

Note: "fair" indicates few or no clouds below 12,000 feet with no
significant weather and/or obstructions to visibility.

* = STATION THAT DOES NOT REPORT PRECIPITATION /E.G. RAIN...SNOW...ETC/
    THUNDER OR FOG.

PAZ002>004-007>009-013>016-020>023-029>032-230700-
WESTERN PENNSYLVANIA

CITY           SKY/WX    TMP DP  RH WIND       PRES   REMARKS
ERIE           MOCLDY   N/A N/A N/A S18G28    29.54F
MEADVILLE      CLOUDY    52  44  74 VRB6      29.56F
FRANKLIN*      CLOUDY    50  43  77 SE14      29.61F
NEW CASTLE     FAIR      54  44  69 S8        29.57F
BEAVER COUNTY  NOT AVBL
BUTLER*        MOCLDY    54  43  66 SE7       29.62F
PITTSBURGH INT FAIR      53  43  68 SE8       29.60F
PITTSBURGH     FAIR      55  41  59 S12       29.61F
INDIANA*       CLOUDY    52  45  76 S9G17     29.71F
LATROBE        FAIR      57  43  58 S14G20    29.66F
WASHINGTON CO* FAIR      55  43  63 S8        29.63F
$$

PAZ004>006-010>012-017>019-024>028-033>037-041-042-045-046-049>053-230700-
CENTRAL PENNSYLVANIA

CITY           SKY/WX    TMP DP  RH WIND       PRES   REMARKS
BRADFORD       CLOUDY    45  42  89 SE12      29.67F
DUBOIS           N/A    N/A N/A N/A MISG      29.68F
CLEARFIELD     LGT RAIN  44  43  96 N6        29.74F
JOHNSTOWN      FAIR      49  40  71 S20G28    29.71F
ALTOONA        LGT RAIN  50  43  77 SW6       29.76F
STATE COLLEGE  RAIN      49  43  80 CALM      29.77F
WILLIAMSPORT   MOCLDY    46  41  82 CALM      29.83F
SELINSGROVE    FAIR      36  34  92 CALM      29.84F FOG
FT INDIANTOWN  LGT RAIN  43  43 100 NE6       29.89F
CAPITAL CITY   FAIR      53  43  68 SE9       29.86F
HARRISBURG     CLOUDY    50  42  74 S8        29.87F
YORK           FAIR      50  43  77 VRB7      29.87F
$$

PAZ038>040-043-044-047-048-054-055-060>062-067>071-230700-
EASTERN PENNSYLVANIA

CITY           SKY/WX    TMP DP  RH WIND       PRES   REMARKS
SCRANTON       FAIR      42  38  85 N8        29.86F
MOUNT POCONO   FOG       36  36 100 E10       29.89F VSB 1/4
ALLENTOWN      MOCLDY    39  35  86 NE5       29.95F FOG
QUAKERTOWN*    NOT AVBL
READING        FAIR      39  39 100 N6        29.91F
LANCASTER      FAIR      44  41  89 SE3       29.90F
COATESVILLE    FAIR      46  41  81 S9        29.93F
POTTSTOWN      FAIR      40  36  86 CALM      29.95F
BLUE BELL      MOCLDY    37  36  93 CALM      29.96F
DOYLESTOWN     CLOUDY    40  38  93 CALM      29.95F
WILLOW GROVE   NOT AVBL
NORTH PHILA    MOCLDY    43  38  82 NE5       29.97F
PHILADELPHIA   FAIR      51  40  65 S9        29.96F
$$




USA.gov is the U.S. government's official web portal to all federal, state and local government web resources and services.